When you browse on this site, cookies collect data to enhance your experience and personalize the content and advertising you see.
Visit our Privacy Policy to learn more. By continuing to use the site, you agree to this use of cookies and data.
  • Em Portugal
  • Lista de países
  • Para 7 dias
  • Temperatura da água
  • Mapas de satélite
  • Mapa do tempo
  • Widgets de tempo
  • user-avatar
    Iniciar Sessão

    Previsão horária em Adamowo

    Hoje, 10 Dezembro, Segunda-feira

    Tempo Temperatura Precipitação Vento Pressão Humidade
    00:00 +3°C° 0 mm 4 m/s 741 mmHg 93%
    01:00 +3°C° 0 mm 3 m/s 741 mmHg 95%
    02:00 +3°C° 0.1 mm 3 m/s 741 mmHg 95%
    03:00 +3°C° 0.1 mm 3 m/s 741 mmHg 94%
    04:00 +3°C° 0.1 mm 4 m/s 742 mmHg 94%
    05:00 +3°C° 0.3 mm 4 m/s 742 mmHg 89%
    06:00 +2°C° 0.3 mm 5 m/s 743 mmHg 84%
    07:00 +2°C° 0.3 mm 6 m/s 744 mmHg 80%
    08:00 +2°C° 0 mm 6 m/s 744 mmHg 78%
    09:00 +2°C° 0 mm 6 m/s 745 mmHg 77%
    10:00 +2°C° 0 mm 6 m/s 745 mmHg 76%
    11:00 +3°C° 0 mm 6 m/s 746 mmHg 72%
    12:00 +3°C° 0 mm 6 m/s 746 mmHg 69%
    13:00 +3°C° 0 mm 6 m/s 746 mmHg 66%
    14:00 +3°C° 0 mm 5 m/s 747 mmHg 69%
    15:00 +2°C° 0 mm 5 m/s 747 mmHg 71%
    16:00 +1°C° 0 mm 4 m/s 747 mmHg 74%
    17:00 +1°C° 0 mm 4 m/s 747 mmHg 76%
    18:00 0°C° 0 mm 4 m/s 747 mmHg 78%
    19:00 0°C° 0 mm 4 m/s 748 mmHg 80%
    20:00 0°C° 0 mm 4 m/s 748 mmHg 83%
    21:00 0°C° 0 mm 4 m/s 748 mmHg 85%
    22:00 -1°C° 0 mm 4 m/s 748 mmHg 87%
    23:00 -1°C° 0 mm 4 m/s 748 mmHg 88%

    Amanhã, 11 Dezembro, Terça-feira

    Tempo Temperatura Precipitação Vento Pressão Humidade
    00:00 -1°C° 0 mm 4 m/s 748 mmHg 89%
    01:00 -1°C° 0 mm 4 m/s 748 mmHg 90%
    02:00 0°C° 0.2 mm 3 m/s 749 mmHg 90%
    03:00 0°C° 0.2 mm 3 m/s 749 mmHg 90%
    04:00 0°C° 0.2 mm 3 m/s 749 mmHg 90%
    05:00 0°C° 0.2 mm 3 m/s 749 mmHg 91%
    06:00 0°C° 0.2 mm 3 m/s 749 mmHg 91%
    07:00 +1°C° 0.2 mm 2 m/s 750 mmHg 92%
    08:00 +2°C° 0 mm 2 m/s 750 mmHg 92%
    09:00 +2°C° 0 mm 2 m/s 751 mmHg 91%
    10:00 +2°C° 0 mm 2 m/s 751 mmHg 91%
    11:00 +2°C° 0 mm 2 m/s 751 mmHg 89%
    12:00 +3°C° 0 mm 2 m/s 752 mmHg 88%
    13:00 +2°C° 0 mm 3 m/s 752 mmHg 87%
    14:00 +1°C° 0 mm 3 m/s 753 mmHg 89%
    15:00 +1°C° 0 mm 3 m/s 753 mmHg 90%
    16:00 0°C° 0 mm 3 m/s 754 mmHg 92%
    17:00 0°C° 0 mm 3 m/s 754 mmHg 92%
    18:00 0°C° 0 mm 3 m/s 755 mmHg 92%
    19:00 -1°C° 0 mm 3 m/s 755 mmHg 93%
    20:00 -1°C° 0 mm 2 m/s 756 mmHg 93%
    21:00 -1°C° 0 mm 2 m/s 756 mmHg 93%
    22:00 -1°C° 0 mm 2 m/s 757 mmHg 93%
    23:00 -1°C° 0 mm 2 m/s 757 mmHg 93%

    Depois de amanhã, 12 Dezembro, Quarta-feira

    Tempo Temperatura Precipitação Vento Pressão Humidade
    00:00 -1°C° 0 mm 2 m/s 758 mmHg 93%
    01:00 -2°C° 0 mm 2 m/s 758 mmHg 93%
    02:00 -2°C° 0 mm 2 m/s 758 mmHg 93%
    03:00 -2°C° 0 mm 2 m/s 758 mmHg 93%
    04:00 0°C° 0 mm 1 m/s 759 mmHg 93%
    05:00 0°C° 0 mm 1 m/s 759 mmHg 93%
    06:00 0°C° 0 mm 1 m/s 759 mmHg 93%
    07:00 0°C° 0 mm 1 m/s 760 mmHg 93%
    08:00 +1°C° 0 mm 1 m/s 760 mmHg 91%
    09:00 +1°C° 0 mm 1 m/s 761 mmHg 90%
    10:00 +2°C° 0 mm 1 m/s 761 mmHg 88%
    11:00 +2°C° 0 mm 1 m/s 761 mmHg 87%
    12:00 +2°C° 0 mm 1 m/s 761 mmHg 85%
    13:00 +3°C° 0 mm 1 m/s 761 mmHg 84%
    14:00 +1°C° 0 mm 2 m/s 761 mmHg 87%
    15:00 +1°C° 0 mm 2 m/s 761 mmHg 89%
    16:00 -1°C° 0 mm 2 m/s 761 mmHg 92%
    17:00 -1°C° 0 mm 2 m/s 762 mmHg 92%
    18:00 -1°C° 0 mm 2 m/s 762 mmHg 93%
    19:00 -1°C° 0 mm 2 m/s 762 mmHg 94%
    20:00 -1°C° 0 mm 2 m/s 762 mmHg 94%
    21:00 -1°C° 0 mm 2 m/s 763 mmHg 94%
    22:00 -1°C° 0 mm 2 m/s 763 mmHg 94%
    23:00 -1°C° 0 mm 3 m/s 763 mmHg 94%

    13 Dezembro, Quinta-feira

    Tempo Temperatura Precipitação Vento Pressão Humidade
    00:00 -1°C° 0 mm 3 m/s 763 mmHg 93%
    01:00 -1°C° 0 mm 3 m/s 763 mmHg 93%
    02:00 -1°C° 0 mm 3 m/s 763 mmHg 92%
    03:00 -1°C° 0 mm 3 m/s 763 mmHg 91%
    04:00 -1°C° 0 mm 3 m/s 763 mmHg 91%
    05:00 -1°C° 0 mm 3 m/s 763 mmHg 90%
    06:00 -1°C° 0 mm 3 m/s 762 mmHg 90%
    07:00 -1°C° 0 mm 3 m/s 762 mmHg 90%
    08:00 -1°C° 0 mm 3 m/s 762 mmHg 88%
    09:00 -1°C° 0 mm 3 m/s 762 mmHg 87%
    10:00 0°C° 0 mm 3 m/s 762 mmHg 85%
    11:00 0°C° 0 mm 3 m/s 762 mmHg 83%
    12:00 0°C° 0 mm 3 m/s 762 mmHg 81%
    13:00 0°C° 0 mm 3 m/s 762 mmHg 80%
    14:00 0°C° 0 mm 3 m/s 762 mmHg 82%
    15:00 -1°C° 0 mm 3 m/s 762 mmHg 84%
    16:00 -1°C° 0 mm 3 m/s 762 mmHg 86%
    17:00 -1°C° 0 mm 3 m/s 762 mmHg 87%
    18:00 -2°C° 0 mm 3 m/s 762 mmHg 87%
    19:00 -2°C° 0 mm 3 m/s 762 mmHg 88%
    20:00 -2°C° 0 mm 3 m/s 762 mmHg 88%
    21:00 -2°C° 0 mm 3 m/s 763 mmHg 88%
    22:00 -2°C° 0 mm 2 m/s 763 mmHg 88%
    23:00 -2°C° 0 mm 2 m/s 763 mmHg 87%

    14 Dezembro, Sexta-feira

    Tempo Temperatura Precipitação Vento Pressão Humidade
    00:00 -2°C° 0 mm 2 m/s 763 mmHg 87%
    01:00 -2°C° 0 mm 2 m/s 763 mmHg 87%
    02:00 -2°C° 0 mm 2 m/s 764 mmHg 88%
    03:00 -2°C° 0 mm 2 m/s 764 mmHg 89%
    04:00 -2°C° 0 mm 2 m/s 764 mmHg 91%
    05:00 -2°C° 0 mm 2 m/s 764 mmHg 91%
    06:00 -2°C° 0 mm 2 m/s 764 mmHg 91%
    07:00 -2°C° 0 mm 2 m/s 765 mmHg 91%
    08:00 -2°C° 0 mm 2 m/s 765 mmHg 90%
    09:00 -2°C° 0 mm 2 m/s 766 mmHg 88%
    10:00 -1°C° 0 mm 2 m/s 766 mmHg 86%
    11:00 -1°C° 0 mm 2 m/s 766 mmHg 85%
    12:00 -1°C° 0 mm 2 m/s 767 mmHg 84%
    13:00 +1°C° 0 mm 2 m/s 767 mmHg 83%
    14:00 -1°C° 0 mm 2 m/s 767 mmHg 85%
    15:00 -1°C° 0 mm 2 m/s 767 mmHg 88%
    16:00 -2°C° 0 mm 2 m/s 768 mmHg 91%
    17:00 -2°C° 0 mm 2 m/s 768 mmHg 91%
    18:00 -2°C° 0 mm 2 m/s 768 mmHg 91%
    19:00 -2°C° 0 mm 2 m/s 769 mmHg 92%
    20:00 -2°C° 0 mm 2 m/s 769 mmHg 92%
    21:00 -3°C° 0 mm 2 m/s 769 mmHg 92%
    22:00 -3°C° 0 mm 2 m/s 770 mmHg 91%
    23:00 -3°C° 0 mm 2 m/s 770 mmHg 92%

    15 Dezembro, Sábado

    Tempo Temperatura Precipitação Vento Pressão Humidade
    00:00 -3°C° 0 mm 2 m/s 770 mmHg 92%
    01:00 -3°C° 0 mm 2 m/s 770 mmHg 92%
    02:00 -3°C° 0 mm 2 m/s 770 mmHg 91%
    03:00 -3°C° 0 mm 2 m/s 770 mmHg 90%
    04:00 -3°C° 0 mm 2 m/s 771 mmHg 90%
    05:00 -2°C° 0 mm 2 m/s 771 mmHg 89%
    06:00 -2°C° 0 mm 2 m/s 771 mmHg 89%
    07:00 -2°C° 0 mm 2 m/s 771 mmHg 89%
    08:00 -2°C° 0 mm 2 m/s 772 mmHg 87%
    09:00 -2°C° 0 mm 2 m/s 772 mmHg 86%
    10:00 -1°C° 0 mm 3 m/s 772 mmHg 85%
    11:00 -1°C° 0 mm 3 m/s 772 mmHg 82%
    12:00 -1°C° 0 mm 3 m/s 772 mmHg 80%
    13:00 -1°C° 0 mm 3 m/s 772 mmHg 77%
    14:00 -1°C° 0 mm 3 m/s 772 mmHg 79%
    15:00 -2°C° 0 mm 2 m/s 773 mmHg 81%
    16:00 -2°C° 0 mm 2 m/s 773 mmHg 83%
    17:00 -2°C° 0 mm 2 m/s 773 mmHg 83%
    18:00 -3°C° 0 mm 2 m/s 773 mmHg 83%
    19:00 -4°C° 0 mm 3 m/s 773 mmHg 84%
    20:00 -4°C° 0 mm 3 m/s 773 mmHg 84%
    21:00 -4°C° 0 mm 3 m/s 773 mmHg 84%
    22:00 -4°C° 0 mm 3 m/s 773 mmHg 85%
    23:00 -4°C° 0 mm 3 m/s 773 mmHg 85%
    Mostrar mais